QZS-3 (MICHIBIKI-3)

Last updated on Fri Dec 19 2025 00:02:52 GMT+0000 (Coordinated Universal Time)

1 42917U 17048A 25352.58490529 .00000000 00000+0 00000+0 0 9990 2 42917 0.0251 185.8577 0001799 91.7265 147.4590 1.00266924 30441
UTC large
Height (km)
Speed (km/s)
/
Latitude / Longitude
Inclination (degrees)
Orbital Period (minutes)
Azimuth
Elevation
Range (km)
Doppler Factor

Next 0 passes for location: London (51.5072 / 0.1276)

Sorry there are no passes over London.